UAE9915 OMDW-EKCH

Flight info

Callsign UAE9915
Flight time N/A
Altitude 34000
Route ANVIX R401 GIDIS G783 VAVIM DCT PEKEM DCT MEDPO DCT ITRUX DCT KITUB Y511 DANOM/N0494F360 Y511 PMA Z712 WEJ W600 DARAX L677 CVO L617 MENKU Y661 ANTAR/N0476F380 DCT RIGRO DCT EVIVI L863 EDIKA DCT OKANA DCT PARAK DCT MAKAL DCT DESEN DCT GOSOT DCT ROE M743 TIDVU
Aircraft B77L/H-SDE1E2E3FGHIJ2J3J4J5M1RWXY/LB1D1

Departure

Time 2026-04-27 13:54
Airport Al Maktoum International Airport (OMDW)

Arrival

Time N/A
Airport Copenhagen Kastrup Airport (EKCH)
Time Latitude Longitude Altitude Speed Heading
2026-04-27 13:21 24.89147 55.14628 166 ft 0 kts 122°
2026-04-27 13:38 24.89150 55.14622 166 ft 4 kts 122°
2026-04-27 13:38 24.89165 55.14597 166 ft 4 kts 122°
2026-04-27 13:38 24.89178 55.14574 166 ft 2 kts 122°
2026-04-27 13:38 24.89189 55.14550 166 ft 4 kts 101°
2026-04-27 13:39 24.89188 55.14522 166 ft 4 kts 58°
2026-04-27 13:39 24.89170 55.14502 166 ft 4 kts 29°
2026-04-27 13:39 24.89146 55.14490 166 ft 4 kts 24°
2026-04-27 13:39 24.89134 55.14484 167 ft 2 kts 31°
2026-04-27 13:42 24.89141 55.14488 167 ft 5 kts 32°
2026-04-27 13:42 24.89197 55.14527 166 ft 11 kts 31°
2026-04-27 13:42 24.89261 55.14569 166 ft 11 kts 31°
2026-04-27 13:43 24.89324 55.14611 165 ft 11 kts 31°
2026-04-27 13:43 24.89388 55.14654 165 ft 11 kts 31°
2026-04-27 13:43 24.89450 55.14695 164 ft 11 kts 31°
2026-04-27 13:43 24.89514 55.14738 164 ft 11 kts 31°
2026-04-27 13:44 24.89577 55.14780 164 ft 11 kts 31°
2026-04-27 13:44 24.89640 55.14822 164 ft 11 kts 31°
2026-04-27 13:44 24.89676 55.14883 163 ft 11 kts 105°
2026-04-27 13:44 24.89639 55.14955 163 ft 11 kts 121°
2026-04-27 13:45 24.89593 55.15039 163 ft 14 kts 121°
2026-04-27 13:45 24.89536 55.15141 163 ft 16 kts 121°
2026-04-27 13:45 24.89477 55.15248 163 ft 16 kts 121°
2026-04-27 13:45 24.89419 55.15353 164 ft 16 kts 121°
2026-04-27 13:46 24.89361 55.15459 164 ft 16 kts 121°
2026-04-27 13:46 24.89302 55.15566 164 ft 16 kts 121°
2026-04-27 13:46 24.89238 55.15681 164 ft 19 kts 121°
2026-04-27 13:46 24.89171 55.15803 164 ft 19 kts 121°
2026-04-27 13:47 24.89104 55.15922 164 ft 19 kts 121°
2026-04-27 13:47 24.89037 55.16044 164 ft 19 kts 121°
2026-04-27 13:47 24.88970 55.16165 164 ft 19 kts 121°
2026-04-27 13:47 24.88903 55.16287 165 ft 19 kts 121°
2026-04-27 13:48 24.88836 55.16408 164 ft 18 kts 121°
2026-04-27 13:48 24.88801 55.16471 164 ft 9 kts 121°
2026-04-27 13:48 24.88763 55.16539 164 ft 13 kts 121°
2026-04-27 13:48 24.88711 55.16634 164 ft 15 kts 121°
2026-04-27 13:49 24.88657 55.16731 164 ft 15 kts 121°
2026-04-27 13:49 24.88603 55.16829 164 ft 15 kts 121°
2026-04-27 13:49 24.88549 55.16927 164 ft 15 kts 121°
2026-04-27 13:49 24.88495 55.17024 164 ft 15 kts 121°
2026-04-27 13:50 24.88442 55.17120 164 ft 15 kts 121°
2026-04-27 13:50 24.88388 55.17218 164 ft 15 kts 121°
2026-04-27 13:50 24.88348 55.17289 164 ft 10 kts 120°
2026-04-27 13:50 24.88357 55.17361 163 ft 10 kts 43°
2026-04-27 13:51 24.88416 55.17404 163 ft 10 kts 32°
2026-04-27 13:51 24.88477 55.17445 163 ft 10 kts 32°
2026-04-27 13:51 24.88539 55.17487 163 ft 10 kts 30°
2026-04-27 13:51 24.88601 55.17527 163 ft 10 kts 31°
2026-04-27 13:52 24.88662 55.17566 162 ft 10 kts 30°
2026-04-27 13:52 24.88726 55.17602 162 ft 10 kts 20°
2026-04-27 13:52 24.88789 55.17627 162 ft 7 kts 20°
2026-04-27 13:52 24.88831 55.17610 162 ft 8 kts 301°
2026-04-27 13:53 24.89116 55.17092 166 ft 97 kts 301°
2026-04-27 13:53 24.89569 55.16275 163 ft 150 kts 301°
2026-04-27 13:53 24.90174 55.15183 331 ft 174 kts 301°
2026-04-27 13:54 24.90811 55.14062 954 ft 169 kts 301°
2026-04-27 13:54 24.91422 55.12945 1479 ft 177 kts 300°
2026-04-27 13:54 24.92076 55.11713 1737 ft 196 kts 301°
2026-04-27 13:54 24.93096 55.10678 2076 ft 208 kts 332°
2026-04-27 13:55 24.94432 55.09992 2588 ft 214 kts 333°
2026-04-27 13:55 24.95775 55.09272 3236 ft 213 kts 335°
2026-04-27 13:55 24.97246 55.09015 3728 ft 225 kts
2026-04-27 13:55 24.98689 55.09704 4343 ft 233 kts 31°
2026-04-27 13:56 24.99929 55.10845 5046 ft 235 kts 39°
2026-04-27 13:56 25.00945 55.12389 5307 ft 265 kts 59°
2026-04-27 13:56 25.01444 55.14433 5686 ft 289 kts 84°
2026-04-27 13:56 25.01318 55.16699 6093 ft 300 kts 92°
2026-04-27 13:57 25.01119 55.19008 6469 ft 305 kts 90°
2026-04-27 13:57 25.01001 55.21323 6711 ft 306 kts 87°
2026-04-27 13:57 25.00961 55.23666 6938 ft 304 kts 85°
2026-04-27 13:57 25.00976 55.26011 7222 ft 307 kts 84°
2026-04-27 13:58 25.01020 55.28355 8032 ft 304 kts 84°
2026-04-27 13:58 25.01088 55.30693 8757 ft 306 kts 83°
2026-04-27 13:58 25.01169 55.33036 9350 ft 312 kts 83°
2026-04-27 13:58 25.01258 55.35450 9984 ft 316 kts 83°
2026-04-27 13:59 25.01350 55.37917 10464 ft 329 kts 84°
2026-04-27 13:59 25.01451 55.40507 10626 ft 353 kts 84°
2026-04-27 13:59 25.01557 55.43311 10808 ft 376 kts 85°
2026-04-27 13:59 25.01669 55.46286 11021 ft 397 kts 85°
2026-04-27 14:00 25.01783 55.49381 11539 ft 408 kts 85°
2026-04-27 14:00 25.01834 55.52543 12133 ft 416 kts 92°
2026-04-27 14:00 25.01355 55.55686 12804 ft 422 kts 106°
2026-04-27 14:00 25.00312 55.58719 13606 ft 422 kts 118°
2026-04-27 14:01 24.98817 55.61506 14210 ft 425 kts 123°
2026-04-27 14:01 24.97232 55.64294 14486 ft 431 kts 123°
2026-04-27 14:01 24.95684 55.67069 14682 ft 430 kts 123°
2026-04-27 14:01 24.94132 55.69895 14839 ft 433 kts 123°
2026-04-27 14:02 24.92434 55.72661 15550 ft 434 kts 128°
2026-04-27 14:02 24.90633 55.75343 16353 ft 434 kts 129°
2026-04-27 14:02 24.88809 55.78006 17098 ft 437 kts 129°
2026-04-27 14:02 24.86998 55.80686 17754 ft 441 kts 129°
2026-04-27 14:03 24.85175 55.83421 18379 ft 445 kts 129°
2026-04-27 14:03 24.83330 55.86199 18863 ft 452 kts 129°
2026-04-27 14:03 24.81450 55.88992 19365 ft 454 kts 130°
2026-04-27 14:03 24.79277 55.91493 19688 ft 453 kts 147°
2026-04-27 14:04 24.76512 55.93048 20134 ft 450 kts 165°
2026-04-27 14:04 24.73468 55.93758 20673 ft 445 kts 180°
2026-04-27 14:04 24.70384 55.93711 21271 ft 442 kts 187°
2026-04-27 14:04 24.67283 55.93527 21745 ft 449 kts 186°
2026-04-27 14:05 24.64168 55.93389 22226 ft 450 kts 188°
2026-04-27 14:05 24.61086 55.92801 22628 ft 449 kts 202°
2026-04-27 14:05 24.58234 55.91413 23155 ft 445 kts 214°
2026-04-27 14:05 24.55771 55.89440 23639 ft 439 kts 225°
2026-04-27 14:06 24.53497 55.87162 23992 ft 444 kts 226°
2026-04-27 14:06 24.51182 55.84869 24416 ft 448 kts 225°
2026-04-27 14:06 24.48842 55.82585 24892 ft 450 kts 225°
2026-04-27 14:06 24.46514 55.80336 25370 ft 452 kts 225°
2026-04-27 14:07 24.44142 55.78058 25813 ft 455 kts 225°
2026-04-27 14:07 24.41750 55.75765 26297 ft 456 kts 225°
2026-04-27 14:07 24.39349 55.73465 26761 ft 458 kts 225°
2026-04-27 14:07 24.36930 55.71147 27208 ft 461 kts 225°
2026-04-27 14:08 24.34539 55.68844 27599 ft 464 kts 225°
2026-04-27 14:08 24.32104 55.66490 28012 ft 467 kts 225°
2026-04-27 14:08 24.29655 55.64124 28424 ft 469 kts 225°
2026-04-27 14:08 24.27190 55.61747 28787 ft 472 kts 225°
2026-04-27 14:09 24.24801 55.59335 29102 ft 474 kts 229°
2026-04-27 14:09 24.22466 55.56765 29442 ft 476 kts 229°
2026-04-27 14:09 24.20132 55.54170 29812 ft 478 kts 230°
2026-04-27 14:09 24.17799 55.51572 30180 ft 478 kts 230°
2026-04-27 14:10 24.15468 55.48981 30673 ft 475 kts 230°
2026-04-27 14:10 24.13165 55.46428 31095 ft 474 kts 230°
2026-04-27 14:10 24.10845 55.43862 31447 ft 474 kts 230°
2026-04-27 14:10 24.08516 55.41290 31808 ft 475 kts 230°
2026-04-27 14:11 24.06202 55.38709 32155 ft 471 kts 233°
2026-04-27 14:11 24.04278 55.35841 32351 ft 465 kts 246°
2026-04-27 14:11 24.02956 55.32637 32682 ft 460 kts 254°
2026-04-27 14:11 24.02083 55.29331 33091 ft 454 kts 262°
2026-04-27 14:12 24.01634 55.25935 33444 ft 450 kts 265°
2026-04-27 14:12 24.01232 55.22546 33795 ft 449 kts 265°
2026-04-27 14:12 24.00825 55.19172 33789 ft 452 kts 265°
2026-04-27 14:13 23.99979 55.12370 33796 ft 448 kts 265°
2026-04-27 14:13 23.99119 55.05662 33795 ft 445 kts 265°
2026-04-27 14:14 23.98249 54.98950 33807 ft 444 kts 265°
2026-04-27 14:14 23.97383 54.92296 33790 ft 444 kts 265°
2026-04-27 14:15 23.96508 54.85598 33784 ft 444 kts 265°
2026-04-27 14:15 23.95634 54.78931 33789 ft 444 kts 265°
2026-04-27 14:16 23.94750 54.72198 34044 ft 448 kts 265°
2026-04-27 14:16 23.94311 54.68870 34348 ft 447 kts 264°
2026-04-27 14:16 23.93867 54.65506 34666 ft 445 kts 264°
2026-04-27 14:16 23.93421 54.62136 34968 ft 445 kts 264°
2026-04-27 14:17 23.92976 54.58783 35235 ft 445 kts 264°
2026-04-27 14:17 23.92536 54.55465 35467 ft 445 kts 264°
2026-04-27 14:17 23.92089 54.52108 35675 ft 446 kts 264°
2026-04-27 14:18 23.91192 54.45374 35765 ft 447 kts 264°
2026-04-27 14:18 23.90294 54.38663 35781 ft 445 kts 264°
2026-04-27 14:19 23.89401 54.32007 35784 ft 444 kts 264°
2026-04-27 14:19 23.88501 54.25329 35784 ft 443 kts 264°
2026-04-27 14:20 23.87606 54.18696 35785 ft 442 kts 263°
2026-04-27 14:20 23.86707 54.12067 35787 ft 443 kts 263°
2026-04-27 14:21 23.85799 54.05389 35789 ft 443 kts 263°
2026-04-27 14:21 23.84894 53.98754 35787 ft 444 kts 263°
2026-04-27 14:22 23.83979 53.92066 35809 ft 444 kts 263°